{"data":{"norad_id":81449,"epoch":"2026-05-15T17:36:41.299776Z","epoch_age_seconds":886301,"freshness":"AGED","line1":"1 81449U          26135.73381134  .00311116  00000+0  54215-2 0  9994","line2":"2 81449  66.7822 250.1209 0024889 305.3844  54.4990 15.49097576656939","mean_motion":15.49097576,"eccentricity":0.0024889,"inclination_deg":66.7822,"raan_deg":250.1209,"arg_perigee_deg":305.3844,"mean_anomaly_deg":54.499,"bstar":0.0054215,"rev_number":65693,"period_min":92.957346413148,"perigee_km":402.44640123427,"apogee_km":436.28300521258,"semimajor_km":6797.5017032234,"source":"CELESTRAK","updated_at":"2026-05-25T13:38:09.453298Z"}}